Lone Rock, WI

8:16 PM CST on December 15, 2017 (GMT -0600)
Tri-County Regional

Weather History for KLNR - May, 2013

Change the Weather History Date:

Monday, May 20, 2013

  Actual Average Record
Temperature  
Mean Temperature 72 °F -  
Max Temperature 82 °F 66 °F 88 °F (2012)
Min Temperature 62 °F 45 °F 33 °F (2002)
Cooling Degree Days 7    
Growing Degree Days 22 (Base 50)    
Moisture  
Dew Point 61 °F    
Average Humidity 74    
Maximum Humidity 97    
Minimum Humidity 47    
Precipitation  
Precipitation 0.40 in - - ()
Sea Level Pressure  
Sea Level Pressure 29.66 in    
Wind  
Wind Speed 13 mph (SSE)    
Max Wind Speed 37 mph    
Max Gust Speed 60 mph    
Visibility 9 miles    
Events Rain , Thunderstorm    
Averages and records for this station are not official NWS values.
T = Trace of Precipitation, MM = Missing Value Source: NWS Daily Summary

Daily Weather History Graph

Daily Weather History Graph

Search for Another Location

Airport or City:

Trip Planner

Search our weather history database for the weather conditions in past years. The results will help you decide how hot, cold, wet, or windy it might be!

Date:

Astronomy

May. 20, 2013 Rise Set
Actual Time 5:31 AM CDT 8:23 PM CDT
Civil Twilight 4:58 AM CDT 8:56 PM CDT
Nautical Twilight 4:16 AM CDT 9:39 PM CDT
Astronomical Twilight 3:27 AM CDT 10:28 PM CDT
Moon 3:23 PM CDT (5/20) 2:35 AM CDT (5/20)
Length of Visible Light 15h 58m
Length of Day
14h 51m
Waxing Gibbous, 75% of the Moon is Illuminated
May 20
Waxing Gibbous
May 24
Full
May 31
Last Quarter
Jun 8
New
Jun 16
First Quarter

Hourly Weather History & Observations

Time (CDT) Temp. Heat Index Dew Point Humidity Pressure Visibility Wind Dir Wind Speed Gust Speed Precip Events Conditions
12:30 AM 73.4 °F - 59.0 °F 61% 29.67 in 10.0 mi SSE 10.4 mph 24.2 mph N/A Thunderstorm Overcast
12:40 AM 69.8 °F - 60.8 °F 73% 29.80 in 2.0 mi SW 36.8 mph 59.8 mph 0.09 in Rain , Thunderstorm Heavy Thunderstorms and Rain
12:43 AM 64.4 °F - 60.8 °F 88% 29.77 in 0.8 mi SW 23.0 mph 59.8 mph 0.24 in Rain , Thunderstorm Heavy Thunderstorms and Rain
12:50 AM 64.4 °F - 60.8 °F 88% 29.78 in 1.0 mi SSW 13.8 mph 42.6 mph 0.30 in Rain , Thunderstorm Thunderstorms and Rain
12:56 AM 64.0 °F - 61.0 °F 90% 29.73 in 4.0 mi SW 9.2 mph 20.7 mph 0.32 in Rain , Thunderstorm Light Thunderstorms and Rain
1:56 AM 64.0 °F - 62.1 °F 93% 29.67 in 10.0 mi East 10.4 mph - 0.08 in Rain , Thunderstorm Light Rain
2:04 AM 64.4 °F - 62.6 °F 94% 29.67 in 10.0 mi ENE 6.9 mph - 0.00 in   Scattered Clouds
2:56 AM 64.0 °F - 62.1 °F 93% 29.67 in 10.0 mi ESE 10.4 mph - 0.00 in   Partly Cloudy
3:18 AM 64.4 °F - 62.6 °F 94% 29.69 in 10.0 mi ESE 6.9 mph - N/A   Mostly Cloudy
3:56 AM 63.0 °F - 62.1 °F 97% 29.65 in 10.0 mi ESE 5.8 mph - N/A   Overcast
4:56 AM 63.0 °F - 61.0 °F 93% 29.62 in 10.0 mi SE 6.9 mph - N/A   Mostly Cloudy
5:08 AM 62.6 °F - 60.8 °F 94% 29.66 in 10.0 mi SE 8.1 mph - N/A   Scattered Clouds
5:56 AM 63.0 °F - 61.0 °F 93% 29.62 in 10.0 mi East 3.5 mph - N/A   Clear
6:56 AM 64.9 °F - 60.1 °F 84% 29.66 in 10.0 mi SSE 11.5 mph - N/A   Scattered Clouds
7:56 AM 66.0 °F - 60.1 °F 81% 29.65 in 10.0 mi South 5.8 mph - N/A   Clear
8:56 AM 70.0 °F - 61.0 °F 73% 29.66 in 10.0 mi SSW 9.2 mph - N/A   Clear
9:56 AM 72.0 °F - 60.1 °F 66% 29.68 in 10.0 mi SSW 10.4 mph 19.6 mph N/A   Clear
10:56 AM 73.9 °F - 60.1 °F 62% 29.66 in 10.0 mi SW 9.2 mph - N/A   Clear
11:56 AM 75.9 °F - 60.1 °F 58% 29.66 in 10.0 mi South 11.5 mph - N/A   Clear
12:56 PM 77.0 °F - 62.1 °F 60% 29.67 in 10.0 mi SSW 9.2 mph 20.7 mph N/A   Mostly Cloudy
1:56 PM 79.0 °F - 62.1 °F 56% 29.67 in 10.0 mi SSW 16.1 mph 26.5 mph N/A   Partly Cloudy
2:56 PM 80.1 °F 81.5 °F 63.0 °F 56% 29.66 in 10.0 mi South 15.0 mph 21.9 mph N/A   Partly Cloudy
3:56 PM 82.0 °F 82.4 °F 60.1 °F 47% 29.65 in 10.0 mi SW 18.4 mph 26.5 mph N/A   Partly Cloudy
4:56 PM 81.0 °F 81.7 °F 61.0 °F 50% 29.63 in 10.0 mi South 19.6 mph 26.5 mph N/A   Clear
5:56 PM 80.1 °F 81.2 °F 62.1 °F 54% 29.62 in 10.0 mi SSW 15.0 mph - N/A   Partly Cloudy
6:56 PM 79.0 °F - 62.1 °F 56% 29.62 in 10.0 mi SSW 12.7 mph - N/A   Clear
7:56 PM 77.0 °F - 62.1 °F 60% 29.62 in 10.0 mi South 6.9 mph - N/A   Clear
8:56 PM 73.0 °F - 62.1 °F 68% 29.61 in 10.0 mi ESE 3.5 mph - N/A   Clear
9:56 PM 73.0 °F - 62.1 °F 68% 29.61 in 10.0 mi East 6.9 mph - N/A   Mostly Cloudy
10:56 PM 72.0 °F - 62.1 °F 71% 29.59 in 10.0 mi ESE 5.8 mph - N/A   Overcast
11:56 PM 70.0 °F - 62.1 °F 76% 29.57 in 10.0 mi ESE 4.6 mph - N/A   Clear